Flag for Germany Weather past 2 weeks in Herzogenrath, North Rhine-Westphalia, Germany

Now
64 °F

Fog.


Feels Like: 64 °F
Forecast: 59 / 73 °F
Wind: 3 mph from Northwest

Location: Geilenkirchen Airport

Current Time: Jul 29, 2014 at 5:50:38 AM

Latest Report: Jul 29, 2014 at 4:50 AM


Visibility: 3 mi

Pressure: 29.86 "Hg

Humidity: 100%

Dew point: 64 °F

Location of HerzogenrathLocation

Historic Weather in Herzogenrath — Graph

°F

Herzogenrath temperature yesterday

Maximum temperature yesterday: 75 °F (at 10:50 AM)
Minimum temperature yesterday: 64 °F (at 6:50 AM)
Average temperature yesterday: 70 °F

Past Weeks' High & Low Weather Summary

 TemperatureHumidityPressure
High84 °F (Jul 17, 3:50 PM)100% (Jul 14, 8:50 AM)30.18 "Hg (Jul 14, 8:50 AM)
Low57 °F (Jul 15, 6:50 AM)42% (Jul 16, 3:50 PM)29.86 "Hg (Jul 14, 7:50 AM)
Average70 °F79%30.03 "Hg
* Reported Jul 14 7:50 AM — Jul 29 3:50 AM, Herzogenrath, Weather by CustomWeather, © 2014

Note: Actual official high and low records may vary slightly from our data, if they occured in-between our weather recording intervals... More about our weather records

Advertising

Herzogenrath weather history for previous 24 hours

 ConditionsComfort  
Time TempWeatherWind HumidityBarometerVisibility
3:50 AM
Jul 29
66 °FPassing clouds.5 mph94%29.86 "Hg4 mi
2:50 AM66 °FPartly cloudy.6 mph94%29.89 "HgN/A
1:50 AM66 °FPassing clouds.7 mph88%29.89 "HgN/A
12:50 AM66 °FPartly cloudy.8 mph94%29.89 "HgN/A
11:50 PM
Jul 28
68 °FPassing clouds.6 mph88%29.89 "HgN/A
10:50 PM68 °FPassing clouds.1 mph88%29.89 "HgN/A
9:50 PM68 °FBroken clouds.3 mph88%29.89 "HgN/A
8:50 PM72 °FBroken clouds.3 mph78%29.89 "HgN/A
3:50 PM73 °FScattered clouds.6 mph83%29.86 "HgN/A
2:50 PM70 °FLight rain. Broken clouds.3 mph94%29.86 "HgN/A
1:50 PM70 °FSprinkles. Partly sunny.6 mph94%29.89 "Hg3 mi
12:50 PM73 °FRain showers. Partly sunny.9 mph83%29.86 "Hg5 mi
11:50 AM75 °FScattered clouds.6 mph69%29.86 "HgN/A
10:50 AM75 °FScattered clouds.1 mph74%29.86 "HgN/A
9:50 AM73 °FScattered clouds.5 mph74%29.86 "HgN/A
8:50 AM70 °FSunny.2 mph83%29.89 "Hg10 mi
7:50 AM64 °FSunny.No wind100%29.89 "Hg10 mi
6:50 AM64 °FClear.No wind94%29.89 "Hg10 mi
Weather by CustomWeather, © 2014

See weather overviewHow to use our weather pages